Location: Bottenau
(48.5138°N, 8.0462°E)
Time: 10:39:11
(UTC+00:00)

Aureole 1 Rocket - Pass Details

Date: 18 April 2021
Orbit: 379 x 1372 km, 73.9° (Epoch: 05 May)

Event Time Altitude Azimuth Distance (km) Brightness Sun altitude
Exits shadow 22:38:06 71° 351° (N) 853 3.7 -29.4°
Drops below altitude 10° 22:42:23 10° 21° (NNE) 2,121 6.4 -29.5°
Sets 22:44:23 0° 23° (NNE) 2,908 7.3 -29.6°
